Weather History for Deer Park, WA

Change the Weather History Date:

Saturday, February 23, 2013

  Actual Average Record
Temperature  
Mean Temperature 27 °F 32 °F  
Max Temperature 39 °F 42 °F 52 °F (2005)
Min Temperature 15 °F 22 °F 12 °F (2003)
Degree Days  
Heating Degree Days 38 33  
Month to date heating degree days 802 806  
Since 1 July heating degree days 4910 5202  
Cooling Degree Days 0 0  
Month to date cooling degree days 0 0  
Year to date cooling degree days 0 0  
Moisture  
Dew Point 22 °F    
Average Humidity 78    
Maximum Humidity 96    
Minimum Humidity 59    
Precipitation  
Precipitation 0.00 in 0.04 in 0.48 in (1999)
Month to date precipitation 0.53 1.33  
Year to date precipitation 2.03 3.96  
Sea Level Pressure  
Sea Level Pressure 30.04 in    
Wind  
Wind Speed 7 mph (South)    
Max Wind Speed 17 mph    
Max Gust Speed 21 mph    
Visibility 6 miles    
Events Fog    
T = Trace of Precipitation, MM = Missing Value Source: NWS Daily Summary

Daily Weather History Graph

Daily Weather History Graph

Search for Another Location

Airport:

Trip Planner

Search our weather history database for the weather conditions in past years. The results will help you decide how hot, cold, wet, or windy it might be!

Date:

Astronomy

Feb. 23, 2013 Rise Set
Actual Time 6:41 AM PST 5:25 PM PST
Civil Twilight 6:09 AM PST 5:56 PM PST
Nautical Twilight 5:33 AM PST 6:32 PM PST
Astronomical Twilight 4:58 AM PST 7:08 PM PST
Moon 3:36 PM PST (2/23) 5:12 AM PST (2/23)
Length of Visible Light 11h 47m
Length of Day
10h 44m
Waxing Gibbous, 96% of the Moon is Illuminated
Feb 23
Waxing Gibbous
Feb 25
Full
Mar 4
Last Quarter
Mar 11
New
Mar 19
First Quarter

Hourly Weather History & Observations

Time (PST) Temp. Windchill Dew Point Humidity Pressure Visibility Wind Dir Wind Speed Gust Speed Precip Events Conditions
12:53 AM 34.0 °F 25.0 °F 25.0 °F 70% 29.71 in 10.0 mi SW 12.7 mph - N/A   Mostly Cloudy
1:53 AM 32.0 °F 24.2 °F 24.1 °F 73% 29.74 in 10.0 mi West 9.2 mph - N/A   Partly Cloudy
2:53 AM 32.0 °F 22.5 °F 24.1 °F 73% 29.75 in 10.0 mi WSW 12.7 mph - N/A   Clear
3:53 AM 28.9 °F 19.2 °F 21.9 °F 75% 29.79 in 10.0 mi SSE 11.5 mph - N/A   Clear
4:53 AM 28.9 °F 19.2 °F 21.9 °F 75% 29.83 in 10.0 mi SE 11.5 mph - N/A   Partly Cloudy
5:53 AM 28.9 °F 19.2 °F 21.9 °F 75% 29.85 in 10.0 mi South 11.5 mph - N/A   Overcast
6:53 AM 27.0 °F 16.7 °F 21.0 °F 78% 29.88 in 10.0 mi South 11.5 mph - N/A   Scattered Clouds
7:53 AM 28.0 °F 20.0 °F 21.9 °F 78% 29.92 in 10.0 mi South 8.1 mph - N/A   Clear
8:53 AM 30.0 °F 20.0 °F 24.1 °F 79% 29.95 in 10.0 mi South 12.7 mph - N/A   Clear
9:53 AM 32.0 °F 24.8 °F 25.0 °F 75% 29.98 in 10.0 mi SSW 8.1 mph - N/A   Clear
10:53 AM 33.1 °F 24.4 °F 25.0 °F 72% 30.00 in 10.0 mi South 11.5 mph - N/A   Clear
11:53 AM 34.0 °F 28.8 °F 26.1 °F 73% 30.01 in 10.0 mi SSE 5.8 mph - N/A   Clear
12:53 PM 36.0 °F 31.1 °F 26.1 °F 67% 30.01 in 10.0 mi South 5.8 mph - N/A   Clear
1:53 PM 39.0 °F 35.7 °F 26.1 °F 60% 30.02 in 10.0 mi SSE 4.6 mph - N/A   Scattered Clouds
2:53 PM 37.9 °F 33.5 °F 27.0 °F 65% 30.04 in 10.0 mi SSE 5.8 mph - N/A   Overcast
3:53 PM 37.9 °F 34.4 °F 25.0 °F 60% 30.07 in 10.0 mi SE 4.6 mph - N/A   Mostly Cloudy
4:53 PM 37.0 °F 31.0 °F 28.9 °F 73% 30.12 in 10.0 mi South 8.1 mph - N/A   Overcast
5:53 PM 32.0 °F - 28.0 °F 85% 30.14 in 10.0 mi Calm Calm - N/A   Clear
8:26 PM 23.0 °F - 21.2 °F 93% 30.13 in 2.5 mi Calm Calm - N/A   Partly Cloudy
8:41 PM 21.2 °F - 19.4 °F 93% 30.13 in 5.0 mi Calm Calm - N/A   Clear
8:44 PM 24.8 °F - 21.2 °F 86% 30.13 in 2.5 mi Calm Calm - N/A   Partly Cloudy
8:48 PM 23.0 °F - 21.2 °F 93% 30.14 in 1.0 mi Calm Calm - N/A   Mist
8:53 PM 24.1 °F - 21.9 °F 91% 30.22 in 0.8 mi Calm Calm - N/A   Clear
9:03 PM 19.4 °F - 19.4 °F 100% 30.14 in 0.8 mi Calm Calm - N/A   Mist
9:09 PM 19.4 °F 12.8 °F 19.4 °F 100% 30.15 in 1.5 mi NW 4.6 mph - N/A   Partly Cloudy
9:11 PM 19.4 °F 12.8 °F 17.6 °F 93% 30.15 in 3.0 mi NW 4.6 mph - N/A   Partly Cloudy
9:31 PM 23.0 °F - 21.2 °F 93% 30.15 in 1.8 mi Calm Calm - N/A   Partly Cloudy
9:37 PM 21.2 °F - 19.4 °F 93% 30.15 in 0.8 mi Calm Calm - N/A   Mist
9:53 PM 19.9 °F - 17.1 °F 89% 30.24 in 0.5 mi North - - N/A Fog Light Freezing Fog
10:53 PM 17.1 °F 11.7 °F 15.1 °F 92% 30.25 in 0.2 mi ENE 3.5 mph - N/A Fog Light Freezing Fog
11:49 PM 15.8 °F 10.2 °F 12.2 °F 86% 30.18 in 2.0 mi NE 3.5 mph - N/A   Overcast
11:53 PM 16.0 °F - 12.9 °F 88% 30.26 in 1.0 mi Calm Calm - N/A   Mist